User: anonymous   Login
Location: Caltech
(34.1382°N, 118.1253°W)
Time: 03:35:25
(UTC-07:00)
Language:

Cosmos 1975 - Orbit

View from above orbital plane
View from above orbital plane
View from above satellite
View from above satellite

Ground track
Ground track

The orbit data is extracted from the following two-line orbital elements,

1 19573U 88093A   16268.01853673  .00001220  00000-0  86416-4 0  9993
2 19573  82.5191 242.9279 0015881 121.5418 238.7362 15.03848074519807
Epoch (UTC): 24 September 2016 00:26:41
Eccentricity: 0.0015881
inclination: 82.5191°
perigee height: 544 km
apogee height: 566 km
right ascension of ascending node: 242.9279°
argument of perigee: 121.5418°
revolutions per day: 15.03848074
mean anomaly at epoch: 238.7362°
orbit number at epoch: 51980

The dashed part of the orbit path shows where the satellite is in the earth's shadow,  

DLR